QPF
0.06 0.06 0.05 0.04 0.04 0.04 0.04 0.02 0.01 0.01 0.00 0.00 0.00 0.00 0.00 0.00 0.00 0.00 0.00 0.00 0.00 0.00 0.00 0.00 0.00 0.00 0.00 0.00 0.00 0.00 0.00 0.00 0.00 0.00 0.00 0.00 0.00 0.00 0.00 0.00 0.00 0.00 0.01 0.01
0.08 0.05 0.03 0.04 0.04 0.05 0.04 0.02 0.01 0.00 0.00 0.00 0.00 0.00 0.00 0.00 0.00 0.00 0.00 0.00 0.00 0.00 0.00 0.00 0.00 0.00 0.00 0.00 0.00 0.00 0.00 0.00 0.00 0.00 0.00 0.00 0.00 0.00 0.00 0.00 0.00 0.00 0.00 0.00
0.05 0.04 0.05 0.04 0.04 0.03 0.02 0.01 0.00 0.00 0.00 0.00 0.00 0.00 0.00 0.00 0.00 0.00 0.00 0.00 0.00 0.00 0.00 0.00 0.00 0.00 0.00 0.00 0.00 0.00 0.00 0.00 0.00 0.00 0.00 0.00 0.00 0.00 0.00 0.00 0.00 0.00 0.00 0.00
0.08 0.05 0.03 0.03 0.01 0.02 0.01 0.00 0.00 0.00 0.00 0.00 0.00 0.00 0.00 0.00 0.00 0.00 0.00 0.00 0.00 0.00 0.00 0.00 0.00 0.00 0.00 0.00 0.00 0.00 0.00 0.00 0.00 0.00 0.00 0.00 0.00 0.00 0.00 0.00 0.00 0.00 0.00 0.00
0.04 0.03 0.02 0.02 0.01 0.02 0.02 0.02 0.01 0.00 0.00 0.00 0.00 0.00 0.00 0.00 0.00 0.00 0.00 0.00 0.00 0.00 0.00 0.00 0.00 0.00 0.00 0.00 0.00 0.00 0.00 0.00 0.00 0.00 0.00 0.00 0.00 0.00 0.00 0.00 0.00 0.00 0.00 0.00
0.05 0.03 0.03 0.02 0.03 0.03 0.03 0.02 0.01 0.00 0.00 0.00 0.00 0.00 0.00 0.00 0.00 0.00 0.00 0.00 0.00 0.00 0.00 0.00 0.00 0.00 0.00 0.00 0.00 0.00 0.00 0.00 0.00 0.00 0.00 0.00 0.00 0.00 0.00 0.00 0.00 0.00 0.00 0.00
0.05 0.04 0.04 0.04 0.04 0.03 0.02 0.01 0.00 0.00 0.00 0.00 0.00 0.00 0.00 0.00 0.00 0.00 0.00 0.00 0.00 0.00 0.00 0.00 0.00 0.00 0.00 0.00 0.00 0.00 0.00 0.00 0.00 0.00 0.00 0.00 0.00 0.00 0.00 0.00 0.00 0.00 0.00 0.00
0.02 0.02 0.02 0.02 0.02 0.01 0.01 0.00 0.00 0.00 0.00 0.00 0.00 0.00 0.00 0.00 0.00 0.00 0.00 0.00 0.00 0.00 0.00 0.00 0.00 0.00 0.00 0.00 0.00 0.00 0.00 0.00 0.00 0.00 0.00 0.00 0.00 0.00 0.00 0.00 0.00 0.00 0.00 0.00
0.01 0.01 0.01 0.00 0.00 0.00 0.00 0.00 0.00 0.00 0.00 0.00 0.00 0.00 0.00 0.00 0.00 0.00 0.00 0.00 0.00 0.00 0.00 0.00 0.00 0.00 0.00 0.00 0.00 0.00 0.00 0.00 0.00 0.00 0.00 0.00 0.00 0.00 0.00 0.00 0.00 0.00 0.00 0.00
0.00 0.00 0.00 0.00 0.00 0.00 0.00 0.00 0.00 0.00 0.00 0.00 0.00 0.00 0.00 0.00 0.00 0.00 0.00 0.00 0.00 0.00 0.00 0.00 0.00 0.00 0.00 0.00 0.00 0.00 0.00 0.00 0.00 0.00 0.00 0.00 0.00 0.00 0.00 0.00 0.00 0.00 0.00 0.00
0.00 0.00 0.00 0.00 0.00 0.00 0.00 0.00 0.00 0.00 0.00 0.00 0.00 0.00 0.00 0.00 0.00 0.00 0.00 0.00 0.00 0.00 0.00 0.00 0.00 0.00 0.00 0.00 0.00 0.00 0.00 0.00 0.00 0.00 0.00 0.00 0.00 0.00 0.00 0.00 0.00 0.00 0.00 0.00
0.00 0.00 0.00 0.00 0.00 0.00 0.00 0.00 0.00 0.00 0.00 0.00 0.00 0.00 0.00 0.00 0.00 0.00 0.00 0.00 0.00 0.00 0.00 0.00 0.00 0.00 0.00 0.00 0.00 0.00 0.00 0.00 0.00 0.00 0.00 0.00 0.00 0.00 0.00 0.00 0.00 0.00 0.00 0.00
0.00 0.00 0.00 0.00 0.00 0.00 0.00 0.00 0.00 0.00 0.00 0.00 0.00 0.00 0.00 0.00 0.00 0.00 0.00 0.00 0.00 0.00 0.00 0.00 0.00 0.00 0.00 0.00 0.00 0.00 0.00 0.00 0.00 0.00 0.00 0.00 0.00 0.00 0.00 0.00 0.00 0.00 0.00 0.00
0.00 0.00 0.00 0.00 0.00 0.00 0.00 0.00 0.00 0.00 0.00 0.00 0.00 0.00 0.00 0.00 0.00 0.00 0.00 0.00 0.00 0.00 0.00 0.00 0.00 0.00 0.00 0.00 0.00 0.00 0.00 0.00 0.00 0.00 0.00 0.00 0.00 0.00 0.00 0.00 0.00 0.00 0.00 0.00
0.00 0.00 0.00 0.00 0.00 0.00 0.00 0.00 0.00 0.00 0.00 0.00 0.00 0.00 0.00 0.00 0.00 0.00 0.00 0.00 0.00 0.00 0.00 0.00 0.00 0.00 0.00 0.00 0.00 0.00 0.00 0.00 0.00 0.00 0.00 0.00 0.00 0.00 0.00 0.00 0.00 0.00 0.00 0.00
0.00 0.00 0.00 0.00 0.00 0.00 0.00 0.00 0.00 0.00 0.00 0.00 0.00 0.00 0.00 0.00 0.00 0.00 0.00 0.00 0.00 0.00 0.00 0.00 0.00 0.00 0.00 0.00 0.00 0.00 0.00 0.00 0.00 0.00 0.00 0.00 0.00 0.00 0.00 0.00 0.00 0.00 0.00 0.00
0.00 0.00 0.00 0.00 0.00 0.00 0.00 0.00 0.00 0.00 0.00 0.00 0.00 0.00 0.00 0.00 0.00 0.00 0.00 0.00 0.00 0.00 0.00 0.00 0.00 0.00 0.00 0.00 0.00 0.00 0.00 0.00 0.00 0.00 0.00 0.00 0.00 0.00 0.00 0.00 0.00 0.00 0.00 0.00
0.00 0.00 0.00 0.00 0.00 0.00 0.00 0.00 0.00 0.00 0.00 0.00 0.00 0.00 0.00 0.00 0.00 0.00 0.00 0.00 0.00 0.00 0.00 0.00 0.00 0.00 0.00 0.00 0.00 0.00 0.00 0.00 0.00 0.00 0.00 0.00 0.00 0.00 0.00 0.00 0.00 0.00 0.00 0.00
0.00 0.00 0.00 0.00 0.00 0.00 0.00 0.00 0.00 0.00 0.00 0.00 0.00 0.00 0.00 0.00 0.00 0.00 0.00 0.00 0.00 0.00 0.00 0.00 0.00 0.00 0.00 0.00 0.00 0.00 0.00 0.00 0.00 0.00 0.00 0.00 0.00 0.00 0.00 0.00 0.00 0.00 0.00 0.00
0.00 0.00 0.00 0.00 0.00 0.00 0.00 0.00 0.00 0.00 0.00 0.00 0.00 0.00 0.00 0.00 0.00 0.00 0.00 0.00 0.00 0.00 0.00 0.00 0.00 0.00 0.00 0.00 0.00 0.00 0.00 0.00 0.00 0.00 0.00 0.00 0.00 0.00 0.00 0.00 0.00 0.00 0.00 0.00
0.00 0.00 0.00 0.00 0.00 0.00 0.00 0.00 0.00 0.00 0.00 0.00 0.00 0.00 0.00 0.00 0.00 0.00 0.00 0.00 0.00 0.00 0.00 0.00 0.00 0.00 0.00 0.00 0.00 0.00 0.00 0.00 0.00 0.00 0.00 0.00 0.00 0.00 0.00 0.00 0.00 0.00 0.00 0.00
0.00 0.00 0.00 0.00 0.00 0.00 0.00 0.00 0.00 0.00 0.00 0.00 0.00 0.00 0.00 0.00 0.00 0.00 0.00 0.00 0.00 0.00 0.00 0.00 0.00 0.00 0.00 0.00 0.00 0.00 0.00 0.00 0.00 0.00 0.00 0.00 0.00 0.00 0.00 0.00 0.00 0.00 0.00 0.00
0.00 0.00 0.00 0.00 0.00 0.00 0.00 0.00 0.00 0.00 0.00 0.00 0.00 0.00 0.00 0.00 0.00 0.00 0.00 0.00 0.00 0.00 0.00 0.00 0.00 0.00 0.00 0.00 0.00 0.00 0.00 0.00 0.00 0.00 0.00 0.00 0.00 0.00 0.00 0.00 0.00 0.00 0.00 0.00
0.00 0.00 0.00 0.00 0.00 0.00 0.00 0.00 0.00 0.00 0.00 0.00 0.00 0.00 0.00 0.00 0.00 0.00 0.00 0.00 0.00 0.00 0.00 0.00 0.00 0.00 0.00 0.00 0.00 0.00 0.00 0.00 0.00 0.00 0.00 0.00 0.00 0.00 0.00 0.00 0.00 0.00 0.00 0.00
0.00 0.00 0.00 0.00 0.00 0.00 0.00 0.00 0.00 0.00 0.00 0.00 0.00 0.00 0.00 0.00 0.00 0.00 0.00 0.00 0.00 0.00 0.00 0.00 0.00 0.00 0.00 0.00 0.00 0.00 0.00 0.00 0.00 0.00 0.00 0.00 0.00 0.00 0.00 0.00 0.00 0.00 0.00 0.00
0.00 0.00 0.00 0.00 0.00 0.00 0.00 0.00 0.00 0.00 0.00 0.00 0.00 0.00 0.00 0.00 0.00 0.00 0.00 0.00 0.00 0.00 0.00 0.00 0.00 0.00 0.00 0.00 0.00 0.00 0.00 0.00 0.00 0.00 0.00 0.00 0.00 0.00 0.00 0.00 0.00 0.00 0.00 0.00
MSLP
1010.87 1011.99 1012.95 1013.68 1014.20 1014.52 1014.69 1014.77 1014.78 1014.76 1014.71 1014.62 1014.48 1014.30 1014.07 1013.83 1013.61 1013.44 1013.36 1013.38 1013.50 1013.70 1013.93 1014.16 1014.35 1014.47 1014.51 1014.49 1014.42 1014.35 1014.29 1014.27 1014.30 1014.34 1014.39 1014.40 1014.35 1014.22 1014.00 1013.70 1013.34 1012.97 1012.60 1012.27
1011.46 1012.40 1013.15 1013.71 1014.11 1014.37 1014.56 1014.72 1014.85 1014.96 1015.02 1014.99 1014.86 1014.62 1014.29 1013.91 1013.55 1013.27 1013.12 1013.11 1013.25 1013.51 1013.82 1014.13 1014.38 1014.53 1014.58 1014.55 1014.46 1014.37 1014.31 1014.32 1014.38 1014.49 1014.59 1014.66 1014.64 1014.52 1014.29 1013.97 1013.59 1013.20 1012.83 1012.52
1011.88 1012.62 1013.18 1013.58 1013.87 1014.12 1014.37 1014.64 1014.92 1015.17 1015.34 1015.37 1015.22 1014.90 1014.44 1013.91 1013.39 1012.98 1012.74 1012.70 1012.86 1013.17 1013.57 1013.96 1014.29 1014.50 1014.58 1014.56 1014.47 1014.38 1014.33 1014.36 1014.46 1014.62 1014.77 1014.88 1014.90 1014.80 1014.57 1014.23 1013.85 1013.45 1013.09 1012.80
1012.08 1012.61 1012.99 1013.27 1013.51 1013.80 1014.15 1014.57 1015.03 1015.44 1015.71 1015.79 1015.61 1015.19 1014.58 1013.87 1013.18 1012.62 1012.27 1012.19 1012.35 1012.72 1013.19 1013.68 1014.10 1014.38 1014.51 1014.52 1014.45 1014.37 1014.33 1014.38 1014.51 1014.70 1014.89 1015.04 1015.09 1015.01 1014.79 1014.47 1014.09 1013.70 1013.36 1013.09
1012.08 1012.41 1012.63 1012.83 1013.09 1013.45 1013.95 1014.57 1015.21 1015.78 1016.17 1016.28 1016.06 1015.53 1014.76 1013.86 1012.98 1012.25 1011.79 1011.64 1011.80 1012.20 1012.75 1013.32 1013.83 1014.19 1014.38 1014.43 1014.39 1014.32 1014.29 1014.35 1014.49 1014.70 1014.92 1015.10 1015.17 1015.12 1014.93 1014.64 1014.28 1013.92 1013.60 1013.36
1011.92 1012.07 1012.18 1012.35 1012.66 1013.15 1013.83 1014.65 1015.49 1016.22 1016.71 1016.84 1016.57 1015.93 1014.99 1013.90 1012.83 1011.95 1011.36 1011.14 1011.27 1011.69 1012.29 1012.94 1013.52 1013.96 1014.22 1014.32 1014.30 1014.24 1014.22 1014.27 1014.40 1014.61 1014.84 1015.03 1015.14 1015.12 1014.98 1014.72 1014.41 1014.08 1013.80 1013.59
1011.66 1011.67 1011.72 1011.91 1012.31 1012.95 1013.82 1014.84 1015.86 1016.72 1017.28 1017.43 1017.10 1016.34 1015.25 1013.99 1012.76 1011.72 1011.02 1010.72 1010.82 1011.24 1011.88 1012.58 1013.23 1013.73 1014.05 1014.19 1014.19 1014.14 1014.11 1014.14 1014.25 1014.44 1014.67 1014.87 1015.00 1015.02 1014.92 1014.72 1014.46 1014.18 1013.94 1013.76
1011.39 1011.32 1011.36 1011.59 1012.10 1012.89 1013.93 1015.10 1016.26 1017.22 1017.82 1017.95 1017.56 1016.71 1015.49 1014.09 1012.72 1011.57 1010.78 1010.41 1010.47 1010.89 1011.55 1012.28 1012.98 1013.53 1013.88 1014.05 1014.07 1014.02 1013.97 1013.97 1014.06 1014.22 1014.42 1014.62 1014.77 1014.82 1014.77 1014.63 1014.43 1014.22 1014.02 1013.88
1011.18 1011.08 1011.14 1011.45 1012.06 1012.97 1014.13 1015.40 1016.63 1017.62 1018.21 1018.30 1017.85 1016.91 1015.61 1014.13 1012.68 1011.46 1010.61 1010.21 1010.25 1010.65 1011.31 1012.06 1012.77 1013.35 1013.73 1013.91 1013.95 1013.89 1013.82 1013.79 1013.84 1013.96 1014.14 1014.33 1014.49 1014.58 1014.58 1014.49 1014.36 1014.20 1014.05 1013.93
1011.05 1010.98 1011.11 1011.49 1012.19 1013.17 1014.37 1015.67 1016.87 1017.82 1018.35 1018.36 1017.85 1016.86 1015.52 1014.01 1012.56 1011.34 1010.49 1010.08 1010.11 1010.50 1011.14 1011.89 1012.60 1013.18 1013.57 1013.76 1013.80 1013.74 1013.66 1013.60 1013.62 1013.71 1013.87 1014.04 1014.20 1014.32 1014.36 1014.33 1014.25 1014.14 1014.03 1013.95
1011.02 1011.03 1011.23 1011.69 1012.43 1013.42 1014.59 1015.80 1016.90 1017.73 1018.14 1018.06 1017.48 1016.47 1015.14 1013.69 1012.30 1011.14 1010.35 1009.97 1010.01 1010.40 1011.02 1011.74 1012.43 1012.99 1013.37 1013.57 1013.62 1013.56 1013.48 1013.41 1013.41 1013.49 1013.62 1013.78 1013.95 1014.07 1014.15 1014.17 1014.13 1014.07 1014.00 1013.93
1011.05 1011.17 1011.47 1011.98 1012.72 1013.66 1014.71 1015.76 1016.68 1017.31 1017.56 1017.37 1016.74 1015.73 1014.47 1013.12 1011.86 1010.83 1010.14 1009.84 1009.91 1010.30 1010.89 1011.57 1012.22 1012.75 1013.12 1013.31 1013.37 1013.34 1013.27 1013.21 1013.21 1013.28 1013.40 1013.56 1013.72 1013.87 1013.96 1014.01 1014.02 1013.99 1013.95 1013.91
1011.11 1011.36 1011.74 1012.28 1012.98 1013.80 1014.68 1015.51 1016.18 1016.58 1016.64 1016.33 1015.65 1014.68 1013.52 1012.33 1011.25 1010.39 1009.84 1009.64 1009.76 1010.15 1010.71 1011.33 1011.93 1012.42 1012.76 1012.96 1013.04 1013.04 1013.01 1012.99 1013.01 1013.09 1013.21 1013.37 1013.53 1013.68 1013.79 1013.87 1013.90 1013.91 1013.89 1013.87
1011.19 1011.54 1011.98 1012.52 1013.15 1013.82 1014.47 1015.04 1015.43 1015.58 1015.45 1015.01 1014.30 1013.39 1012.38 1011.37 1010.49 1009.83 1009.45 1009.35 1009.53 1009.91 1010.43 1011.00 1011.53 1011.97 1012.30 1012.51 1012.62 1012.66 1012.68 1012.71 1012.77 1012.88 1013.02 1013.18 1013.35 1013.50 1013.62 1013.71 1013.77 1013.80 1013.81 1013.80
1011.25 1011.68 1012.16 1012.66 1013.18 1013.67 1014.09 1014.38 1014.49 1014.39 1014.07 1013.52 1012.80 1011.97 1011.11 1010.30 1009.64 1009.18 1008.96 1008.97 1009.19 1009.58 1010.05 1010.55 1011.02 1011.42 1011.72 1011.94 1012.09 1012.19 1012.28 1012.37 1012.49 1012.63 1012.79 1012.96 1013.13 1013.28 1013.41 1013.51 1013.58 1013.63 1013.66 1013.68
1011.33 1011.79 1012.25 1012.69 1013.07 1013.36 1013.54 1013.57 1013.42 1013.10 1012.61 1011.98 1011.27 1010.52 1009.81 1009.20 1008.74 1008.47 1008.39 1008.50 1008.76 1009.13 1009.56 1010.00 1010.41 1010.76 1011.06 1011.30 1011.49 1011.66 1011.82 1011.98 1012.15 1012.33 1012.51 1012.69 1012.86 1013.01 1013.13 1013.23 1013.32 1013.39 1013.44 1013.48
1011.42 1011.86 1012.26 1012.59 1012.83 1012.93 1012.88 1012.66 1012.29 1011.78 1011.16 1010.47 1009.78 1009.12 1008.55 1008.11 1007.83 1007.72 1007.77 1007.95 1008.24 1008.60 1008.98 1009.37 1009.73 1010.05 1010.35 1010.61 1010.85 1011.09 1011.32 1011.55 1011.77 1011.99 1012.19 1012.37 1012.53 1012.67 1012.78 1012.89 1012.98 1013.05 1013.12 1013.17
1011.56 1011.90 1012.19 1012.39 1012.46 1012.38 1012.13 1011.71 1011.16 1010.50 1009.79 1009.07 1008.40 1007.82 1007.37 1007.08 1006.95 1006.96 1007.10 1007.34 1007.65 1007.99 1008.35 1008.70 1009.03 1009.34 1009.64 1009.94 1010.23 1010.53 1010.82 1011.11 1011.37 1011.61 1011.82 1012.00 1012.15 1012.27 1012.38 1012.47 1012.56 1012.64 1012.71 1012.77
1011.73 1011.93 1012.08 1012.12 1012.02 1011.76 1011.33 1010.76 1010.07 1009.31 1008.54 1007.81 1007.17 1006.67 1006.31 1006.13 1006.10 1006.21 1006.42 1006.70 1007.03 1007.37 1007.71 1008.04 1008.36 1008.68 1009.01 1009.35 1009.69 1010.04 1010.38 1010.71 1011.00 1011.25 1011.46 1011.63 1011.76 1011.86 1011.95 1012.04 1012.12 1012.19 1012.26 1012.30
1011.91 1011.95 1011.92 1011.78 1011.51 1011.10 1010.53 1009.84 1009.05 1008.23 1007.43 1006.71 1006.10 1005.65 1005.37 1005.27 1005.31 1005.48 1005.74 1006.06 1006.40 1006.75 1007.10 1007.44 1007.79 1008.14 1008.50 1008.88 1009.27 1009.67 1010.04 1010.39 1010.70 1010.95 1011.15 1011.30 1011.42 1011.51 1011.58 1011.65 1011.72 1011.78 1011.82 1011.84
1012.07 1011.92 1011.71 1011.41 1010.99 1010.43 1009.76 1008.98 1008.14 1007.29 1006.48 1005.77 1005.19 1004.79 1004.55 1004.50 1004.59 1004.80 1005.10 1005.44 1005.82 1006.19 1006.57 1006.95 1007.34 1007.73 1008.15 1008.57 1009.00 1009.43 1009.83 1010.19 1010.50 1010.75 1010.94 1011.08 1011.18 1011.25 1011.32 1011.37 1011.43 1011.47 1011.49 1011.47
1012.16 1011.83 1011.46 1011.01 1010.46 1009.81 1009.05 1008.23 1007.36 1006.50 1005.70 1005.01 1004.46 1004.08 1003.87 1003.84 1003.96 1004.19 1004.52 1004.89 1005.30 1005.72 1006.15 1006.59 1007.03 1007.48 1007.95 1008.42 1008.88 1009.33 1009.75 1010.11 1010.42 1010.66 1010.84 1010.98 1011.07 1011.15 1011.21 1011.27 1011.31 1011.33 1011.32 1011.26
1012.15 1011.68 1011.18 1010.62 1009.98 1009.27 1008.47 1007.62 1006.75 1005.90 1005.11 1004.44 1003.90 1003.53 1003.33 1003.31 1003.43 1003.68 1004.02 1004.43 1004.88 1005.35 1005.85 1006.35 1006.86 1007.37 1007.89 1008.40 1008.89 1009.36 1009.77 1010.14 1010.44 1010.68 1010.87 1011.01 1011.13 1011.22 1011.30 1011.36 1011.40 1011.41 1011.37 1011.26
1012.03 1011.48 1010.90 1010.28 1009.60 1008.86 1008.05 1007.21 1006.35 1005.51 1004.74 1004.07 1003.53 1003.15 1002.94 1002.90 1003.01 1003.26 1003.62 1004.05 1004.55 1005.09 1005.64 1006.22 1006.79 1007.37 1007.93 1008.47 1008.99 1009.46 1009.87 1010.23 1010.54 1010.79 1010.99 1011.17 1011.31 1011.44 1011.55 1011.64 1011.69 1011.69 1011.63 1011.49
1011.83 1011.25 1010.66 1010.03 1009.35 1008.62 1007.84 1007.02 1006.18 1005.35 1004.58 1003.90 1003.34 1002.93 1002.68 1002.61 1002.70 1002.94 1003.30 1003.76 1004.30 1004.89 1005.52 1006.16 1006.79 1007.42 1008.02 1008.59 1009.11 1009.58 1010.00 1010.36 1010.67 1010.94 1011.18 1011.39 1011.59 1011.77 1011.93 1012.06 1012.13 1012.14 1012.07 1011.90
1011.57 1011.03 1010.48 1009.89 1009.26 1008.57 1007.82 1007.03 1006.21 1005.39 1004.60 1003.89 1003.29 1002.83 1002.52 1002.40 1002.46 1002.67 1003.03 1003.52 1004.09 1004.74 1005.42 1006.12 1006.81 1007.47 1008.10 1008.68 1009.21 1009.68 1010.10 1010.47 1010.80 1011.10 1011.38 1011.65 1011.91 1012.15 1012.37 1012.54 1012.66 1012.69 1012.62 1012.44
Thickness
5719 5710 5705 5713 5721 5722 5720 5714 5713 5722 5733 5724 5718 5721 5728 5731 5728 5725 5721 5718 5715 5715 5717 5716 5714 5712 5708 5705 5701 5698 5694 5691 5688 5684 5680 5677 5674 5672 5670 5668 5666 5665 5665 5665
5705 5704 5719 5725 5724 5721 5717 5712 5713 5722 5730 5723 5716 5717 5727 5729 5728 5729 5725 5720 5718 5716 5715 5714 5713 5710 5707 5704 5701 5697 5694 5691 5688 5684 5681 5677 5674 5671 5669 5667 5665 5664 5663 5663
5702 5713 5724 5722 5717 5713 5712 5712 5715 5716 5721 5720 5715 5711 5719 5729 5731 5731 5730 5726 5722 5719 5716 5714 5712 5710 5707 5703 5701 5699 5695 5692 5689 5686 5682 5679 5675 5672 5669 5666 5665 5663 5662 5662
5706 5717 5721 5718 5715 5715 5709 5723 5721 5717 5705 5697 5704 5685 5707 5718 5723 5726 5726 5724 5723 5722 5719 5715 5713 5710 5707 5705 5703 5699 5696 5693 5690 5687 5683 5679 5674 5669 5667 5665 5664 5663 5663 5661
5705 5714 5716 5714 5720 5720 5717 5723 5718 5712 5702 5691 5693 5684 5696 5712 5716 5722 5726 5726 5725 5723 5721 5718 5715 5713 5710 5707 5704 5700 5696 5694 5691 5688 5684 5680 5675 5672 5669 5667 5665 5664 5663 5662
5711 5721 5722 5722 5726 5725 5720 5711 5702 5691 5684 5675 5688 5680 5688 5702 5716 5726 5730 5728 5727 5724 5722 5719 5717 5713 5710 5707 5704 5701 5697 5694 5692 5689 5685 5681 5677 5674 5671 5668 5666 5664 5663 5662
5704 5714 5723 5727 5718 5717 5713 5694 5675 5673 5663 5668 5688 5683 5692 5717 5724 5728 5731 5730 5729 5725 5721 5718 5715 5712 5709 5707 5704 5701 5698 5695 5693 5689 5686 5683 5679 5676 5672 5669 5666 5664 5662 5661
5691 5694 5717 5724 5720 5711 5705 5696 5674 5665 5661 5668 5683 5680 5703 5725 5731 5734 5735 5733 5729 5725 5722 5720 5717 5714 5711 5708 5706 5702 5699 5696 5694 5690 5688 5685 5681 5677 5674 5672 5669 5666 5663 5662
5691 5695 5721 5727 5727 5716 5700 5693 5692 5672 5669 5665 5672 5687 5710 5729 5730 5731 5730 5729 5727 5725 5723 5721 5718 5715 5712 5710 5707 5704 5700 5697 5695 5692 5689 5686 5683 5680 5677 5674 5671 5668 5666 5665
5705 5698 5713 5722 5723 5715 5709 5692 5677 5668 5659 5657 5669 5680 5692 5716 5723 5727 5726 5726 5727 5726 5724 5722 5719 5717 5714 5712 5709 5706 5702 5699 5697 5694 5691 5688 5685 5682 5679 5676 5673 5671 5668 5666
5710 5698 5702 5711 5709 5705 5698 5691 5676 5662 5661 5651 5655 5676 5711 5718 5724 5725 5726 5728 5728 5726 5725 5723 5721 5719 5716 5713 5710 5706 5703 5701 5698 5695 5693 5690 5687 5684 5680 5677 5675 5672 5670 5668
5705 5692 5686 5699 5712 5716 5708 5696 5681 5671 5665 5655 5653 5676 5723 5723 5726 5727 5728 5730 5730 5729 5728 5725 5723 5719 5716 5713 5710 5707 5705 5702 5700 5697 5694 5691 5688 5685 5682 5679 5676 5674 5671 5668
5704 5691 5678 5682 5691 5703 5703 5696 5688 5676 5662 5649 5652 5681 5722 5725 5728 5728 5730 5730 5730 5730 5728 5725 5721 5719 5716 5714 5712 5709 5707 5705 5702 5699 5695 5692 5689 5686 5683 5680 5678 5675 5672 5669
5710 5692 5683 5679 5685 5695 5697 5695 5685 5678 5664 5658 5665 5687 5711 5721 5725 5728 5729 5731 5730 5729 5727 5725 5721 5719 5718 5716 5714 5711 5709 5707 5703 5699 5696 5692 5690 5687 5684 5681 5678 5675 5673 5670
5708 5692 5692 5693 5698 5699 5697 5697 5688 5683 5683 5677 5687 5691 5711 5721 5726 5730 5731 5730 5729 5728 5727 5726 5723 5721 5719 5716 5714 5712 5710 5708 5705 5700 5697 5694 5691 5688 5685 5682 5679 5676 5673 5671
5699 5693 5690 5691 5699 5694 5691 5697 5694 5691 5693 5690 5695 5702 5724 5728 5729 5729 5730 5729 5728 5729 5729 5728 5726 5723 5720 5718 5716 5714 5711 5709 5705 5701 5698 5696 5692 5688 5685 5682 5679 5675 5673 5670
5687 5684 5676 5673 5685 5687 5681 5698 5699 5699 5703 5702 5702 5719 5730 5728 5728 5732 5733 5732 5732 5733 5732 5731 5729 5727 5724 5722 5719 5715 5713 5710 5705 5702 5699 5696 5692 5688 5685 5682 5678 5675 5672 5669
5684 5677 5668 5666 5676 5667 5695 5716 5713 5709 5714 5715 5721 5729 5733 5735 5739 5741 5740 5737 5736 5737 5735 5733 5731 5729 5727 5724 5720 5717 5713 5709 5705 5702 5699 5696 5692 5689 5685 5681 5678 5675 5671 5668
5688 5676 5660 5656 5659 5668 5694 5712 5711 5707 5713 5728 5728 5735 5737 5737 5737 5738 5743 5742 5742 5741 5739 5737 5734 5731 5727 5723 5720 5715 5710 5707 5703 5700 5698 5695 5692 5688 5684 5680 5678 5674 5670 5668
5677 5674 5661 5651 5658 5661 5693 5718 5722 5714 5709 5736 5734 5735 5733 5729 5720 5733 5747 5745 5743 5742 5739 5736 5732 5729 5724 5721 5718 5713 5708 5704 5702 5700 5698 5695 5691 5687 5683 5680 5677 5673 5669 5667
5668 5661 5656 5650 5652 5668 5704 5714 5714 5696 5707 5737 5738 5736 5731 5733 5742 5749 5748 5745 5742 5739 5736 5733 5729 5725 5722 5718 5714 5709 5705 5702 5701 5698 5695 5692 5689 5685 5682 5678 5674 5671 5668 5665
5663 5655 5650 5645 5647 5666 5709 5706 5700 5707 5724 5731 5735 5736 5735 5739 5743 5743 5743 5741 5737 5734 5730 5727 5723 5719 5716 5714 5711 5706 5701 5700 5697 5694 5691 5687 5684 5682 5679 5674 5671 5667 5664 5661
5659 5663 5660 5662 5676 5697 5704 5706 5712 5714 5716 5724 5729 5733 5735 5734 5734 5736 5736 5734 5732 5729 5725 5722 5718 5712 5709 5708 5706 5702 5698 5696 5692 5688 5684 5681 5678 5675 5672 5669 5665 5662 5658 5655
5657 5660 5657 5659 5676 5690 5696 5700 5706 5711 5714 5721 5725 5729 5730 5730 5731 5730 5729 5727 5725 5723 5719 5715 5711 5707 5702 5700 5699 5697 5693 5690 5686 5681 5677 5674 5671 5668 5665 5662 5659 5655 5652 5649
5647 5648 5645 5651 5667 5679 5693 5697 5701 5707 5712 5717 5721 5725 5726 5726 5726 5726 5725 5723 5720 5717 5713 5710 5707 5702 5696 5693 5691 5689 5687 5684 5679 5674 5670 5666 5663 5659 5656 5653 5650 5647 5644 5642
5637 5637 5635 5644 5661 5660 5675 5690 5693 5697 5703 5709 5712 5717 5722 5722 5723 5723 5722 5720 5716 5711 5706 5702 5698 5694 5689 5687 5684 5681 5679 5677 5672 5666 5661 5658 5654 5650 5647 5644 5640 5639 5637 5635